Regional Weather Roundup
Issued by NWS

Home | Current Version | Previous Version | Graphics & Text | Print | Product List | Glossary On
Versions: 1 2 3 4 5 6 7 8 9 10 11 12 13 14 15 16 17 18 19 20 21 22 23 24 25 26 27 28 29 30 31 32 33 34 35 36 37 38 39 40 41 42 43 44 45 46 47 48 49 50
000
ASUS43 KLMK 070302
RWRKY
KENTUCKY REGIONAL WEATHER ROUNDUP
NATIONAL WEATHER SERVICE LOUISVILLE KY
1100 PM EDT WED MAY 06 2015

NOTE "FAIR" INDICATES FEW OR NO CLOUDS BELOW 12,000 FEET
WITH NO SIGNIFICANT WEATHER AND/OR OBSTRUCTIONS TO VISIBILITY.

KYZ001>023-026-027-061>063-070>075-070400-
WESTERN AND SOUTH CENTRAL KENTUCKY

CITY           SKY/WX    TMP DP  RH WIND       PRES   REMARKS
PADUCAH        CLEAR     68  56  65 CALM      30.06R
HENDERSON      CLEAR     66  55  68 CALM      30.07S
OWENSBORO      CLEAR     73  60  63 CALM      30.09R
HOPKINSVILLE   NOT AVBL
BOWLING GREEN  CLEAR     71  59  65 CALM      30.10R
GLASGOW        NOT AVBL
$$

KYZ024-025-028>034-038-045-046-053-070400-
NORTH CENTRAL KENTUCKY

CITY           SKY/WX    TMP DP  RH WIND       PRES   REMARKS
LOUISVILLE/SDF PTCLDY    76  57  51 E6        30.10R
LOUISVILLE/LOU CLEAR     73  58  59 CALM      30.11R
FORT KNOX      CLEAR     66  57  72 CALM      30.10R
$$

KYZ035>037-039>044-047>052-055>060-089>105-070400-
NORTHEAST KENTUCKY

CITY           SKY/WX    TMP DP  RH WIND       PRES   REMARKS
LEXINGTON      PTCLDY    68  57  68 CALM      30.13R
COVINGTON      CLEAR     67  54  63 CALM      30.13R
FRANKFORT      CLEAR     66  56  70 CALM      30.11R
$$

KYZ054-064>069-076>088-106>120-070400-
SOUTHEAST KENTUCKY

CITY           SKY/WX    TMP DP  RH WIND       PRES   REMARKS
JACKSON        PTCLDY    72  53  51 SE3       30.16R
LONDON         PTCLDY    65  56  72 CALM      30.14R
SOMERSET       NOT AVBL
MIDDLESBORO    NOT AVBL
MONTICELLO     CLEAR     62  58  87 CALM      30.15R
$$




USA.gov is the U.S. government's official web portal to all federal, state and local government web resources and services.